Home   Weather   Leuven   Past weeks

Flag for Belgium Past Weather in Leuven, Belgium — Yesterday and Last 2 Weeks

57 °F

Passing clouds.

Feels Like: 57 °F
Forecast: 47 / 59 °F
Wind: 2 mph from North

Location: Brussels National Airport

Current Time: Oct 26, 2016 at 5:17:00 PM

Latest Report: Oct 26, 2016 at 4:20 PM

Visibility: 4 mi

Pressure: 30.39 "Hg

Humidity: 63%

Dew Point: 45 °F

Location of LeuvenLocation

Past Weather in Leuven — Graph


Leuven Temperature Yesterday

Maximum temperature yesterday: 54 °F (at 2:20 PM)
Minimum temperature yesterday: 46 °F (at 9:20 PM)
Average temperature yesterday: 50 °F

High & Low Weather Summary for the Past Weeks

High68 °F (Oct 16, 2:50 PM)100% (Oct 12, 3:50 AM)30.42 "Hg (Oct 12, 3:50 AM)
Low32 °F (Oct 23, 4:50 AM)54% (Oct 11, 5:20 PM)29.62 "Hg (Oct 15, 1:50 AM)
Average49 °F87%30.01 "Hg
* Reported Oct 11 3:20 PM — Oct 26 3:50 PM, Leuven, Weather by CustomWeather, © 2016

Note: Actual official high and low records may vary slightly from our data, if they occured in-between our weather recording intervals... More about our weather records


Leuven Weather History for the Previous 24 Hours

Scroll right to see more
Time TempWeatherWind HumidityBarometerVisibility
3:50 PM
Wed, Oct 26
57 °FPassing clouds.2 mph63%30.39 "Hg4 mi
3:20 PM57 °FPassing clouds.3 mph63%30.39 "Hg4 mi
2:50 PM57 °FPassing clouds.1 mph67%30.39 "Hg4 mi
2:20 PM55 °FClear.1 mph67%30.39 "Hg4 mi
1:50 PM55 °FClear.2 mph67%30.39 "Hg5 mi
1:20 PM54 °FClear.2 mph72%30.42 "Hg5 mi
12:50 PM54 °FClear.2 mph67%30.42 "Hg5 mi
12:20 PM52 °FClear.2 mph72%30.39 "Hg5 mi
11:50 AM52 °FClear.2 mph77%30.39 "Hg5 mi
11:20 AM50 °FClear.5 mph76%30.39 "Hg4 mi
10:50 AM48 °FClear.3 mph87%30.39 "Hg4 mi
10:20 AM45 °FFog.2 mph93%30.39 "Hg2 mi
9:50 AM41 °FFog.5 mph100%30.36 "Hg2 mi
9:20 AM39 °FFog.3 mph93%30.36 "Hg2 mi
8:50 AM37 °FLight fog.1 mph100%30.36 "Hg1 mi
8:20 AM37 °FLight fog.2 mph100%30.36 "Hg1 mi
7:50 AM37 °FFog.3 mph100%30.36 "Hg1 mi
7:20 AM37 °FLight fog.1 mph100%30.36 "Hg1 mi
6:50 AM36 °FLight fog.1 mph100%30.36 "Hg2 mi
6:20 AM37 °FLight fog.1 mph100%30.36 "Hg1 mi
5:50 AM37 °FLight fog.2 mph100%30.33 "Hg1 mi
5:20 AM39 °FLight fog.No wind100%30.33 "Hg1 mi
4:50 AM39 °FFog.2 mph100%30.33 "Hg1 mi
4:20 AM41 °FFog.2 mph100%30.33 "Hg0 mi
3:50 AM39 °FFog.1 mph100%30.33 "Hg0 mi
3:20 AM41 °FLight fog.3 mph100%30.33 "Hg1 mi
2:50 AM41 °FFog.1 mph100%30.33 "Hg2 mi
2:20 AM43 °FFog.5 mph93%30.33 "Hg2 mi
1:50 AM41 °FFog.3 mph100%30.33 "Hg2 mi
1:20 AM43 °FFog.3 mph100%30.33 "Hg2 mi
12:50 AM43 °FFog.2 mph100%30.33 "Hg2 mi
12:20 AM45 °FFog.5 mph93%30.33 "Hg3 mi
11:50 PM
Tue, Oct 25
46 °FFog.5 mph93%30.33 "Hg3 mi
11:20 PM46 °FFog.5 mph93%30.33 "Hg3 mi
10:50 PM46 °FFog.1 mph100%30.33 "Hg2 mi
10:20 PM46 °FFog.3 mph93%30.33 "Hg3 mi
9:50 PM46 °FFog.2 mph93%30.30 "Hg3 mi
9:20 PM46 °FFog.1 mph93%30.30 "Hg3 mi
8:50 PM48 °FPassing clouds.2 mph87%30.30 "Hg4 mi
8:20 PM48 °FPassing clouds.2 mph94%30.30 "Hg4 mi
7:50 PM48 °FPassing clouds.2 mph87%30.30 "Hg4 mi
7:20 PM48 °FPassing clouds.3 mph94%30.27 "Hg4 mi
6:50 PM50 °FFog.2 mph88%30.27 "Hg3 mi
6:20 PM50 °FFog.1 mph88%30.27 "Hg3 mi
5:50 PM52 °FFog.2 mph82%30.24 "Hg3 mi
5:20 PM54 °FPartly sunny.1 mph72%30.27 "Hg3 mi
Weather by CustomWeather, © 2016

See weather overviewHow to use our weather pages